Date,TemperatureHighF,TemperatureAvgF,TemperatureLowF,DewpointHighF,DewpointAvgF,DewpointLowF,HumidityHigh,HumidityAvg,HumidityLow,PressureMaxIn,PressureMinIn,WindSpeedMaxMPH,WindSpeedAvgMPH,GustSpeedMaxMPH,PrecipitationSumIn
2013-4-1,49,40,28,39,35,25,98,83,55,0.00,40.00,1,1,4,0.00
2013-4-2,59,44,30,42,35,28,98,73,39,0.00,40.00,1,0,3,0.00
2013-4-3,55,44,35,39,36,31,86,75,54,0.00,40.00,0,0,1,0.00
2013-4-4,62,49,38,39,34,27,81,59,30,0.00,40.00,1,0,4,0.00
2013-4-5,57,44,35,44,35,22,94,73,26,0.00,40.00,1,1,4,0.00
2013-4-6,59,45,35,44,40,33,95,82,58,0.00,40.00,1,0,3,0.00
2013-4-7,61,47,38,47,39,30,90,74,54,0.00,40.00,1,0,3,0.00
2013-4-8,41,36,32,40,35,30,100,97,79,0.00,40.00,2,1,7,0.00
2013-4-9,51,38,28,33,26,13,100,71,22,0.00,40.00,1,1,4,0.00
2013-4-10,61,46,30,30,22,13,87,44,15,0.00,40.00,2,1,6,0.00
2013-4-11,62,47,34,42,31,24,83,59,25,0.00,40.00,1,0,5,0.00
2013-4-12,68,51,38,46,35,27,82,59,23,0.00,40.00,2,0,5,0.00
2013-4-13,62,49,38,45,32,19,74,54,25,0.00,40.00,1,1,4,0.00
2013-4-14,58,44,36,43,37,24,96,77,51,0.00,40.00,2,1,5,0.00
2013-4-15,44,39,33,40,36,32,97,90,75,0.00,40.00,2,1,5,0.00
2013-4-16,41,35,27,35,29,17,96,79,62,0.00,40.00,1,1,5,0.00
2013-4-17,51,37,25,24,16,4,92,52,15,0.00,40.00,1,1,5,0.00
2013-4-18,57,45,34,18,8,0,43,23,13,0.00,40.00,2,1,6,0.00
2013-4-19,66,49,33,20,13,5,50,26,12,0.00,40.00,1,1,4,0.00
2013-4-20,71,55,36,32,24,18,64,35,14,0.00,40.00,2,0,5,0.00
2013-4-21,72,54,40,29,25,20,60,37,15,0.00,40.00,1,0,4,0.00
2013-4-22,67,52,39,38,28,21,68,43,22,0.00,40.00,1,0,4,0.00
2013-4-23,68,52,38,37,30,24,67,47,21,0.00,40.00,1,0,3,0.00
2013-4-24,66,50,41,47,35,26,99,62,24,0.00,40.00,1,0,5,0.00
2013-4-25,52,41,36,44,39,32,100,93,70,0.00,40.00,1,0,3,0.00
2013-4-26,68,53,35,44,33,26,84,52,23,0.00,40.00,1,0,5,0.00
2013-4-27,75,56,40,35,25,12,66,35,10,0.00,40.00,2,0,6,0.00
2013-4-28,76,60,44,32,26,18,53,30,12,0.00,40.00,1,0,4,0.00
2013-4-29,75,60,45,39,27,18,57,32,12,0.00,40.00,1,1,4,0.00
2013-4-30,67,55,43,46,32,19,78,46,21,0.00,40.00,1,1,4,0.00